Miscellaneous Local Product
Issued by NWS North Platte, NE

Current Version | Previous Version | Text Only | Print | Product List | Glossary On
Versions: 1 2 3 4 5 6 7 8 9 10 11 12 13 14 15 16 17 18 19 20 21 22 23 24 25 26 27 28 29 30 31 32 33 34 35 36 37 38 39 40 41 42 43 44 45 46 47 48 49 50
000
AXUS43 KLBF 300610
MISLBF


WESTERN AND NORTH CENTRAL NEBRASKA HOURLY WEATHER ROUNDUP
NATIONAL WEATHER SERVICE NORTH PLATTE NE
100 AM CDT MON MAR 30 2015

***STATIONS NOT REPORTING VARIABLES SUCH AS SKY/WEATHER OR
PRESSURE ARE PROVIDED BY THE NEBRASKA DEPARTMENT OF
ROADS...RAWS...AND APRS NETWORKS...AND ARE NOT UNDER
NATIONAL WEATHER SERVICE QUALITY CONTROL***

...OBSERVATIONS IN AND NEAR THE EASTERN PANHANDLE OF NEBRASKA...

CITY           SKY/WX    TMP DP  RH WIND       PRES   REMARKS
PINE RIDGE     PTCLDY    39  26  59 NE6       30.04F WCI  35
CHADRON        CLEAR     36  26  67 SW12      30.05F WCI  28
ALLIANCE       PTCLDY    42  24  49 SE5       30.09S
SIDNEY         CLEAR     38  23  55 SW9       30.13F WCI  31
$$

...OBSERVATIONS IN NORTH CENTRAL NEBRASKA...

CITY           SKY/WX    TMP DP  RH WIND       PRES   REMARKS
VALENTINE      PTCLDY    39  23  52 W6        30.07S WCI  35
THEDFORD       PTCLDY    46  18  33 SW10      30.11S
AINSWORTH      MOCLDY    45  22  39 SW8       30.08S
O`NEILL        CLOUDY    41  26  55 SW7       30.08S
ORD            PTCLDY    35  15  44 S3        30.11S
BROKEN BOW     PTCLDY    31  16  54 CALM      30.12F
$$

...OBSERVATIONS IN SOUTHWEST NEBRASKA AND FAR NORTHEAST COLORADO...

CITY           SKY/WX    TMP DP  RH WIND       PRES   REMARKS
WRAY           FAIR      47  20  34 S9        30.16F
IMPERIAL         N/A     44  20  38 S9        30.15
OGALLALA       CLEAR     41  19  41 S5        30.13S
NORTH PLATTE   CLEAR     34  20  56 SE5       30.13F WCI  30
MCCOOK         CLEAR     44  16  32 S8        30.17S
LEXINGTON      PTCLDY    36  15  43 S3        30.16R
$$

...NORTH PLATTE AREA...

CITY           SKY/WX    TMP DP  RH WIND       PRES   REMARKS
AIRPORT        CLEAR     34  20  56 SE5       30.13F WCI  30
$$

...SOME WEATHER OBSERVATIONS FROM AROUND THE REGION...

CITY           SKY/WX    TMP DP  RH WIND       PRES   REMARKS
DENVER         PTCLDY    50  25  37 SW15      30.16R
LARAMIE        PTCLDY    38  13  35 SW3       30.20F
CHEYENNE       PTCLDY    45  23  42 SW9       30.16F
SCOTTSBLUFF    PTCLDY    39  24  55 E7        30.09F WCI  34
RAPID CITY     PTCLDY    46  28  49 S7        30.03F
PIERRE         CLOUDY    49  28  44 SW5       30.00S
WINNER         FAIR      49  21  33 SW12      30.04S
SIOUX FALLS    PTCLDY    37  21  52 SW5       30.04S WCI  33
OMAHA          CLEAR     41  27  57 SE6       30.11F
GRAND ISLAND   CLEAR     35  22  58 SW7       30.14F WCI  29
KANSAS CITY    CLEAR     47  34  60 SW9       30.16S
WICHITA        CLEAR     53  32  44 NE5       30.20R
HAYS           CLEAR     36  12  38 NW3       30.21R
LIBERAL        PTCLDY    50  27  40 E3        30.24R
GOODLAND       MOCLDY    44  21  40 S13       30.19F
$$



USA.gov is the U.S. government's official web portal to all federal, state and local government web resources and services.